Weather History for KAKO - September, 2012

Change the Weather History Date:

Sunday, September 2, 2012

  Actual Average Record
Temperature  
Mean Temperature 77 °F 69 °F  
Max Temperature 92 °F 83 °F 98 °F (1947)
Min Temperature 61 °F 55 °F 38 °F (1952)
Degree Days  
Heating Degree Days 0    
Month to date heating degree days 0  
Cooling Degree Days 12    
Month to date cooling degree days 26  
Growing Degree Days 26 (Base 50)    
Moisture  
Dew Point 47 °F    
Average Humidity 42    
Maximum Humidity 66    
Minimum Humidity 17    
Precipitation  
Precipitation 0.03 in 0.05 in 0.83 in (1966)
Month to date precipitation 0.03 0.10  
Year to date precipitation 6.36 13.59  
Sea Level Pressure  
Sea Level Pressure 29.94 in    
Wind  
Wind Speed 11 mph (NW)    
Max Wind Speed 30 mph    
Max Gust Speed 38 mph    
Visibility 10 miles    
Events Rain , Thunderstorm    
T = Trace of Precipitation, MM = Missing Value Source: NWS Daily Summary

Daily Weather History Graph

Daily Weather History Graph

Search for Another Location

Airport or City:

Trip Planner

Search our weather history database for the weather conditions in past years. The results will help you decide how hot, cold, wet, or windy it might be!

Date:

Astronomy

Sep. 02, 2012 Rise Set
Actual Time 6:21 AM MDT 7:22 PM MDT
Civil Twilight 5:54 AM MDT 7:49 PM MDT
Nautical Twilight 5:21 AM MDT 8:22 PM MDT
Astronomical Twilight 4:46 AM MDT 8:56 PM MDT
Moon 8:10 PM MDT (9/2) 8:32 AM MDT (9/2)
Length of Visible Light 13h 55m
Length of Day
13h 00m
Waning Gibbous, 95% of the Moon is Illuminated
Sep 2
Waning Gibbous
Sep 8
Last Quarter
Sep 15
New
Sep 22
First Quarter
Sep 29
Full

Hourly Weather History & Observations

Time (MDT) Temp. Dew Point Humidity Pressure Visibility Wind Dir Wind Speed Gust Speed Precip Events Conditions
12:53 AM 77.0 °F 34.0 °F 21% 29.82 in 10.0 mi SSW 13.8 mph - N/A   Clear
2:53 AM 68.0 °F 45.0 °F 43% 29.85 in 10.0 mi NNW 13.8 mph - N/A   Clear
3:53 AM 64.9 °F 46.0 °F 50% 29.86 in 10.0 mi NNW 12.7 mph - N/A   Clear
4:53 AM 61.0 °F 45.0 °F 56% 29.88 in 10.0 mi North 8.1 mph - N/A   Clear
5:53 AM 66.0 °F 46.0 °F 48% 29.88 in 10.0 mi NNW 6.9 mph - N/A   Clear
6:53 AM 66.9 °F 46.0 °F 47% 29.91 in 10.0 mi NNW 9.2 mph - N/A   Clear
7:53 AM 71.1 °F 46.0 °F 41% 29.94 in 10.0 mi NW 11.5 mph - N/A   Clear
8:53 AM 70.0 °F 46.0 °F 42% 29.94 in 10.0 mi WNW 6.9 mph - N/A   Clear
9:53 AM 73.9 °F 46.0 °F 37% 29.96 in 10.0 mi WNW 4.6 mph - N/A   Clear
10:53 AM 81.0 °F 45.0 °F 28% 29.96 in 10.0 mi North 12.7 mph - N/A   Clear
11:53 AM 86.0 °F 44.1 °F 23% 29.93 in 10.0 mi North 12.7 mph 18.4 mph N/A   Clear
12:53 PM 88.0 °F 44.1 °F 22% 29.90 in 10.0 mi NNE 8.1 mph - N/A   Clear
1:53 PM 88.0 °F 42.1 °F 20% 29.90 in 10.0 mi Calm Calm - N/A   Scattered Clouds
2:53 PM 90.0 °F 42.1 °F 19% 29.88 in 10.0 mi Variable 4.6 mph 20.7 mph N/A   Clear
3:53 PM 89.1 °F 41.0 °F 19% 29.87 in 10.0 mi Variable 4.6 mph - N/A   Clear
4:53 PM 90.0 °F 39.9 °F 17% 29.87 in 10.0 mi East 9.2 mph - N/A   Scattered Clouds
5:53 PM 89.1 °F 39.9 °F 18% 29.86 in 10.0 mi ESE 8.1 mph - N/A   Clear
6:53 PM 84.0 °F 42.1 °F 23% 29.87 in 10.0 mi ESE 11.5 mph - N/A   Clear
7:51 PM 69.8 °F 55.4 °F 60% 30.14 in 8.0 mi West 26.5 mph 38.0 mph 0.02 in Rain , Thunderstorm Rain
7:53 PM 69.1 °F 55.9 °F 63% 29.98 in 8.0 mi West 23.0 mph 38.0 mph 0.02 in Rain , Thunderstorm Light Rain
8:00 PM 69.8 °F 55.4 °F 60% 30.15 in 10.0 mi West 23.0 mph 29.9 mph 0.00 in Rain Light Rain
8:18 PM 69.8 °F 55.4 °F 60% 30.17 in 10.0 mi SW 12.7 mph - 0.00 in Rain Light Rain
8:53 PM 68.0 °F 57.9 °F 70% 30.02 in 10.0 mi West 8.1 mph - 0.01 in   Mostly Cloudy
9:53 PM 70.0 °F 55.0 °F 59% 29.98 in 10.0 mi NW 6.9 mph - 0.00 in   Overcast
10:53 PM 69.1 °F 57.0 °F 65% 29.93 in 10.0 mi South 4.6 mph - 0.00 in   Overcast
11:53 PM 69.1 °F 55.0 °F 61% 29.91 in 10.0 mi South 3.5 mph - N/A   Partly Cloudy